Regional Weather Roundup
Issued by NWS Kansas City/Pleasant Hill, MO

Home | Current Version | Previous Version | Text Only | Print | Product List | Glossary On
Versions: 1 2 3 4 5 6 7 8 9 10 11 12 13 14 15 16 17 18 19 20 21 22 23 24 25 26 27 28 29 30 31 32 33 34 35 36 37 38 39 40 41 42 43 44 45 46 47 48 49 50
749
ASUS43 KEAX 281210
RWREAX

WEATHER ROUNDUP FOR EASTERN KANSAS AND NORTHWEST MISSOURI
NATIONAL WEATHER SERVICE KANSAS CITY/PLEASANT HILL MO
700 AM CDT SUN MAY 28 2017

KSZ040-057-103>105-MOZ028-029-037-043-281300-
...KANSAS CITY METROPOLITAN AREA...

CITY           SKY/WX    TMP DP  RH WIND       PRES   REMARKS
K.C. INTL      MOSUNNY   59  57  93 NW8       29.90R
6HR MIN TEMP:  57; 6HR MAX TEMP:  63;

K.C. DOWNTOWN  SUNNY     61  59  93 NW3       29.89R
6HR MIN TEMP:  60; 6HR MAX TEMP:  67;

LEES SUMMIT    CLOUDY    59  59 100 NW5       29.91R
6HR MIN TEMP:  59; 6HR MAX TEMP:  65;

OLATHE - IXD   SUNNY     58  57  97 NW8       29.91R
6HR MIN TEMP:  58; 6HR MAX TEMP:  64;

OLATHE - OJC   SUNNY     59  59 100 N5        29.90R
6HR MIN TEMP:  58; 6HR MAX TEMP:  65;

LAWRENCE       SUNNY     59  58  96 W5        29.92R

$$

MOZ001>008-011>017-020>025-030>033-038>040-044>046-053-054-281300-
...NORTHERN AND CENTRAL MISSOURI...

CITY           SKY/WX    TMP DP  RH WIND       PRES   REMARKS
ST. JOSEPH     MOSUNNY   59  58  96 NW6       29.91R
6HR MIN TEMP:  57; 6HR MAX TEMP:  62;

MOSBY          SUNNY     59  59 100 NW3       29.89R
WARRENSBURG    CLOUDY    59  55  88 NW7       29.88R
WHITEMAN AFB   CLOUDY    60  60 100 N8        29.87R
6HR MIN TEMP:  60; 6HR MAX TEMP:  63;

CLINTON        CLOUDY    61  59  94 N8        29.88R
SEDALIA        CLOUDY    63  62  97 NW10      29.88R
6HR MIN TEMP:  63; 6HR MAX TEMP:  65;

WARSAW         NOT AVBL
CHILLICOTHE      N/A     58  55  90 CALM      29.89R
6HR MIN TEMP:  56; 6HR MAX TEMP:  64;

KIRKSVILLE     CLOUDY    58  54  86 N10G21    29.85R
6HR MIN TEMP:  57; 6HR MAX TEMP:  61;


$$

MOZ041-047>049-056>058-063>065-088>090-097-281300-
...EASTERN AND SOUTHERN MISSOURI...

CITY           SKY/WX    TMP DP  RH WIND       PRES   REMARKS
ST. LOUIS INTL CLOUDY    65  60  84 W8        29.78R
6HR MIN TEMP:  64; 6HR MAX TEMP:  67;

SPIRIT OF STL  CLOUDY    62  61  96 W8        29.79R
COLUMBIA       FOG       62  62 100 NW13      29.84R VSB 1/4
JEFFERSON CITY FOG       63  61  93 NW6       29.83R VSB 1/2
ROLLA          FOG       59  59 100 SW7       29.83R VSB<1/4
OSAGE BEACH    CLOUDY    62  62 100 CALM      29.87R FOG
SPRINGFIELD    CLOUDY    63  61  93 NW3       29.90R
BRANSON        CLOUDY    63  63 100 CALM      29.91R FOG
JOPLIN         CLOUDY    64  63  96 N6        29.92R
WEST PLAINS    CLOUDY    63  61  93 S6        29.88F

$$

IAZ060-094-KSZ022-034>040-054-083-096-NEZ052-066-093-281300-
...KANSAS...SOUTHEAST NEBRASKA AND IOWA...

CITY           SKY/WX    TMP DP  RH WIND       PRES   REMARKS
TOPEKA         CLEAR     60  59  96 CALM      29.93R
6HR MIN TEMP:  58; 6HR MAX TEMP:  63;

MANHATTAN      CLEAR     56  54  93 CALM      29.95R
EMPORIA        CLEAR     59  59 100 NW3       29.95R
CHANUTE        CLOUDY    60  58  92 N5        29.93R
WICHITA        PTCLDY    61  55  81 NW13      29.98R
OMAHA          MOSUNNY   57  51  80 CALM      29.89R
LINCOLN        CLEAR     58  50  75 NW5       29.92F
FALLS CITY     SUNNY     57  53  86 NW5       29.91R
LAMONI         SUNNY     57  56  96 W7        29.87R
DES MOINES     MOSUNNY   58  54  86 CALM      29.84R

$$





USA.gov is the U.S. government's official web portal to all federal, state and local government web resources and services.